Location: Kitt Peak
(31.9639°N, 111.5992°W)
Time: 13:41:34
(UTC-07:00)

SRMSAT - Pass Details

Date: 23 December 2025
Orbit: 846 x 863 km, 20.0° (Epoch: 13 January)

Event Time Altitude Azimuth Distance (km) Brightness Sun altitude
Exits shadow 06:31:45 - 244° (WSW) 3,205 ? -10.9°
Reaches altitude 10° 06:35:39 10° 216° (SW) 2,454 ? -10.2°
Maximum altitude 06:37:26 11° 198° (SSW) 2,357 ? -9.8°
Drops below altitude 10° 06:39:14 10° 180° (S) 2,456 ? -9.5°
Sets 06:43:51 0° 148° (SSE) 3,395 ? -8.5°
